Wind_Speed
20 21 21 21 22 22 22 22 22 21 20 20 19 19 19 20 20 20 20 21 21 21 21 21 21 20 21 21 21 21 22 22 21 22 23 24 24 24 24 24 24 25 26
20 21 21 20 21 21 21 21 20 19 19 18 18 18 19 19 20 20 20 20 20 20 20 20 20 21 20 20 20 21 22 22 22 21 22 22 23 24 24 23 23 24 24
20 21 21 21 20 20 20 19 19 19 18 18 18 18 19 19 19 19 20 20 19 19 19 19 20 20 19 19 19 20 21 21 21 21 22 22 22 22 23 23 23 23 23
19 19 19 19 19 19 18 18 18 18 18 18 18 18 18 19 19 19 20 19 18 18 19 19 19 18 18 19 19 20 21 21 21 22 21 21 21 22 23 22 22 22 22
18 18 18 17 17 17 17 17 17 17 17 18 17 18 18 18 19 19 19 19 19 19 18 18 18 18 18 19 19 19 20 20 21 21 20 20 20 21 22 21 21 21 21
16 16 15 15 15 15 15 16 17 17 17 18 18 18 18 18 18 18 17 18 18 18 18 18 17 17 17 17 18 18 18 19 20 19 19 19 18 19 20 20 20 20 21
14 14 14 14 15 15 16 16 17 17 17 18 18 18 18 18 17 17 17 17 17 17 18 17 17 17 17 17 17 17 16 16 16 16 17 17 17 18 18 19 19 20 20
13 13 14 15 15 15 15 15 16 16 17 17 17 17 17 17 17 17 18 18 17 17 18 17 17 16 16 17 16 16 15 14 15 15 16 16 16 16 16 16 17 18 19
12 13 13 14 14 14 14 15 16 15 15 16 16 16 17 17 17 17 18 18 17 17 17 17 17 16 16 15 15 15 14 14 14 14 14 13 13 13 14 14 15 16 18
11 12 12 12 13 13 14 15 15 15 15 15 15 16 16 17 17 17 17 17 17 17 17 17 16 16 15 15 14 14 13 13 12 12 11 12 11 12 12 13 14 15 16
10 10 10 10 11 12 13 13 14 14 15 15 16 16 17 17 17 17 17 17 17 17 17 17 16 15 15 14 14 14 13 12 11 11 11 11 11 12 13 14 15 15 16
8 9 10 10 11 12 12 13 14 14 15 15 16 16 17 17 17 17 17 16 16 17 17 17 16 15 14 14 13 13 13 12 12 12 12 12 12 12 13 14 14 15 16
8 9 9 10 11 11 13 14 15 15 15 16 16 16 17 17 17 17 17 17 17 17 17 16 15 15 14 14 13 13 13 13 13 13 13 13 13 13 13 14 14 15 16
8 8 8 9 11 12 13 14 14 15 15 16 16 17 17 17 17 17 18 18 17 17 16 16 16 16 15 14 14 14 14 14 14 14 14 14 14 14 14 14 15 16 16
7 7 8 9 11 12 13 14 14 15 15 16 16 17 17 18 18 18 18 18 17 17 16 16 16 16 16 16 16 15 15 15 15 15 15 15 15 16 16 16 16 17 17
7 7 8 9 11 12 13 14 15 15 16 16 16 17 17 18 18 18 18 18 18 18 18 17 17 17 17 16 16 16 16 16 16 16 16 16 16 16 17 17 17 18 18
7 8 9 10 11 12 13 14 15 16 17 17 17 18 18 19 18 18 19 20 20 20 19 18 18 18 18 17 17 17 17 17 17 17 17 17 17 17 18 18 18 19 19
7 8 9 10 11 13 14 15 16 16 17 17 18 18 18 18 19 19 20 21 21 21 20 19 19 19 19 19 19 19 19 18 17 18 18 19 19 19 19 20 20 20 20
7 8 9 11 12 14 15 15 16 17 17 18 18 19 19 19 20 20 21 22 22 22 22 21 20 20 20 20 20 20 19 18 18 18 19 19 19 19 19 20 20 20 21
8 9 11 12 13 14 15 16 17 18 18 19 19 19 20 20 21 22 22 22 22 22 22 22 21 21 21 21 21 20 20 19 19 20 20 20 20 20 20 20 20 21 21
9 10 11 12 13 14 16 17 18 19 19 19 20 20 20 21 21 22 22 23 24 24 23 23 22 23 23 23 22 22 22 22 22 22 22 21 21 21 21 21 22 22 22
9 10 11 12 13 15 16 18 18 19 19 19 20 21 21 21 22 23 24 25 25 26 25 24 24 24 24 24 24 24 24 24 24 24 23 23 23 22 23 23 23 23 23
10 10 11 13 14 15 17 18 18 19 20 21 22 22 22 22 23 24 25 26 27 27 27 26 25 25 25 25 25 25 25 25 25 24 24 24 24 24 23 23 23 23 23
10 11 12 14 15 16 18 19 19 20 21 22 22 23 23 24 25 26 27 28 28 28 27 27 27 27 27 27 26 26 26 25 25 24 24 24 24 24 24 24 24 24 23
11 12 13 14 16 17 18 19 20 20 21 22 23 24 25 26 27 28 28 28 28 28 28 28 28 28 28 27 27 26 26 26 25 24 24 24 24 24 24 24 24 24 24
12 13 14 15 16 18 19 20 21 22 23 23 24 25 26 27 28 28 28 29 29 29 29 30 29 29 28 28 28 28 27 27 26 25 25 25 25 25 25 24 25 24 24
Wind_Direction
301 303 304 306 307 308 307 309 309 310 307 305 305 304 303 302 303 304 304 303 301 300 299 297 295 294 291 287 283 280 279 277 274 272 270 268 266 266 265 265 262 259 257
301 303 305 307 308 311 312 311 312 313 311 309 307 306 305 304 306 307 307 305 304 302 301 299 297 296 293 290 286 282 280 279 277 274 272 271 269 266 266 265 263 259 257
302 304 305 307 309 311 313 312 314 315 314 314 310 309 308 307 308 308 307 306 305 304 303 303 301 300 297 294 290 285 282 282 281 278 274 272 269 267 266 265 263 260 257
304 305 305 308 309 311 315 315 317 317 316 314 313 310 310 310 309 308 308 308 308 307 306 306 305 303 300 297 294 289 285 283 282 280 277 274 270 269 268 267 264 259 256
306 308 309 310 310 313 316 318 319 319 317 316 315 315 315 314 313 311 311 311 310 309 308 307 307 306 303 299 297 294 290 285 282 281 279 275 273 271 268 266 263 259 257
309 311 313 314 314 316 318 321 321 319 320 320 320 320 320 319 319 319 318 317 316 314 313 311 311 310 308 303 301 300 295 289 284 281 279 276 275 272 268 264 261 259 258
313 315 316 315 316 318 320 322 324 324 323 324 327 326 325 324 323 323 322 321 319 317 316 314 313 311 310 308 307 305 300 295 290 285 279 277 276 274 270 265 260 258 259
312 317 317 316 317 321 322 326 328 328 326 326 330 333 334 333 331 328 326 324 322 320 319 317 315 314 313 310 306 305 303 300 296 290 285 280 277 275 272 268 262 261 261
312 316 319 320 321 324 328 330 331 332 332 333 333 334 335 334 333 333 331 330 327 325 325 324 321 315 313 313 311 310 308 305 300 293 288 284 280 276 274 269 263 263 265
317 321 323 325 325 328 332 333 335 335 337 337 336 335 336 337 337 336 336 334 332 332 329 328 326 322 319 316 315 314 313 309 305 300 294 288 284 280 277 275 271 270 270
328 332 332 332 333 333 334 336 339 341 342 343 343 341 340 340 340 340 340 338 338 337 334 331 330 328 324 320 318 317 316 313 309 304 299 295 292 287 283 281 278 278 277
336 338 339 340 341 341 342 342 343 343 342 344 345 343 342 343 341 340 340 339 338 338 336 332 330 328 327 327 324 321 319 315 312 309 305 302 298 294 290 286 283 281 280
337 340 343 346 347 347 347 346 345 344 343 344 345 346 346 346 344 343 342 341 339 338 337 335 331 328 326 325 326 324 319 315 313 312 310 308 304 300 296 292 289 289 284
338 343 346 349 351 349 347 347 347 347 346 346 345 345 344 343 344 345 345 344 342 341 338 336 334 333 327 322 321 321 319 316 312 309 310 308 304 301 298 296 292 290 286
342 343 346 347 348 347 347 349 349 348 347 348 347 346 344 343 342 343 343 344 345 344 342 338 335 332 330 326 321 319 316 313 311 309 306 304 302 300 299 298 294 291 290
348 348 350 350 351 350 350 351 351 349 348 347 346 345 344 343 342 342 342 341 340 339 338 339 337 334 331 329 324 320 317 314 310 309 305 301 300 300 298 297 295 293 294
354 353 351 350 350 350 350 350 349 348 346 346 346 345 344 343 343 343 341 341 339 337 335 333 333 332 329 327 325 324 321 316 311 308 304 302 301 299 298 298 297 296 294
349 348 347 346 346 346 346 345 344 344 344 344 344 343 342 342 341 340 338 338 338 338 335 331 329 327 326 325 323 321 319 316 313 311 309 306 303 300 298 298 298 297 296
343 343 343 343 342 342 342 343 343 343 343 343 342 340 339 340 339 338 337 336 336 335 333 330 329 327 325 324 323 322 319 316 314 312 311 309 305 303 301 298 297 297 298
338 337 339 340 338 340 342 344 343 342 341 340 341 339 339 339 339 338 338 337 335 334 332 329 328 327 326 324 321 320 319 316 315 313 311 311 307 304 303 301 299 298 296
335 337 340 342 339 339 340 340 340 340 340 340 341 340 339 339 340 340 340 339 338 335 332 329 327 326 325 323 320 317 316 314 312 311 310 307 305 305 304 303 300 299 297
338 338 340 343 341 339 339 340 341 342 342 342 342 342 341 340 340 338 338 337 335 335 334 331 329 327 326 324 321 318 315 313 310 308 307 306 304 304 303 302 302 300 299
341 338 338 340 344 341 340 341 342 342 342 342 341 341 341 339 338 338 337 336 335 334 333 331 329 327 325 325 323 320 317 315 312 309 308 306 305 303 304 303 302 302 302
343 340 339 339 341 341 340 340 341 341 341 342 342 342 342 341 339 338 337 336 335 334 334 332 330 328 326 324 322 321 320 319 317 313 311 310 308 307 304 302 302 303 301
340 339 339 339 342 343 341 341 340 340 341 341 341 341 340 340 339 338 337 336 337 336 335 333 331 329 328 326 325 324 322 320 318 316 314 312 310 307 306 304 302 301 300
336 337 338 339 342 343 343 341 341 340 340 340 340 339 339 338 338 337 336 336 336 336 336 335 333 332 329 327 326 325 323 321 319 317 314 311 310 309 307 305 304 302 299
Height
5788 5785 5782 5779 5776 5773 5769 5766 5762 5758 5754 5752 5749 5747 5744 5742 5739 5736 5733 5730 5728 5725 5722 5720 5717 5714 5712 5710 5708 5707 5705 5704 5704 5704 5702 5702 5702 5701 5701 5701 5701 5701 5702
5783 5780 5777 5774 5771 5768 5764 5761 5757 5754 5750 5748 5745 5743 5740 5737 5734 5731 5728 5725 5723 5720 5717 5714 5712 5709 5706 5704 5702 5700 5699 5697 5697 5697 5696 5695 5694 5694 5694 5694 5694 5694 5694
5778 5775 5772 5769 5766 5763 5760 5757 5754 5750 5747 5744 5741 5739 5736 5733 5730 5727 5724 5721 5718 5715 5712 5709 5706 5703 5701 5698 5696 5694 5693 5691 5690 5690 5689 5688 5687 5687 5687 5687 5687 5687 5687
5773 5770 5768 5765 5762 5759 5756 5753 5750 5747 5744 5741 5738 5735 5732 5728 5725 5722 5719 5716 5713 5710 5707 5704 5701 5698 5695 5693 5691 5688 5687 5685 5684 5683 5682 5681 5680 5680 5680 5679 5680 5680 5681
5768 5766 5764 5761 5759 5756 5753 5750 5747 5744 5741 5737 5734 5731 5728 5724 5721 5718 5714 5711 5708 5705 5702 5699 5696 5693 5691 5688 5685 5683 5681 5679 5678 5676 5675 5675 5674 5673 5673 5673 5673 5673 5674
5765 5762 5760 5758 5755 5753 5750 5747 5744 5741 5737 5734 5731 5727 5724 5720 5717 5714 5711 5707 5704 5701 5698 5695 5692 5689 5686 5683 5680 5678 5675 5673 5672 5670 5669 5668 5668 5667 5666 5666 5666 5667 5668
5761 5759 5757 5755 5752 5750 5747 5744 5741 5737 5734 5731 5727 5724 5720 5717 5713 5710 5707 5704 5701 5698 5695 5691 5688 5685 5682 5679 5676 5673 5671 5668 5667 5665 5664 5663 5662 5661 5661 5661 5661 5661 5662
5758 5756 5754 5752 5749 5747 5744 5741 5738 5735 5732 5728 5724 5721 5718 5714 5711 5707 5704 5700 5697 5694 5691 5688 5685 5681 5678 5675 5673 5670 5667 5665 5662 5661 5659 5658 5657 5656 5656 5655 5655 5656 5656
5755 5753 5751 5749 5746 5744 5741 5739 5736 5732 5729 5726 5722 5719 5716 5712 5708 5705 5701 5698 5694 5691 5688 5685 5681 5678 5675 5672 5669 5666 5664 5661 5659 5657 5655 5654 5653 5652 5651 5651 5651 5651 5651
5752 5750 5749 5746 5744 5741 5739 5736 5733 5730 5727 5724 5720 5717 5713 5710 5706 5702 5699 5695 5692 5688 5685 5681 5678 5675 5672 5669 5666 5663 5661 5658 5656 5654 5652 5651 5649 5648 5647 5646 5646 5646 5645
5750 5748 5746 5744 5742 5739 5737 5734 5731 5728 5725 5722 5718 5715 5711 5707 5704 5700 5697 5693 5690 5686 5682 5678 5675 5672 5669 5666 5663 5661 5658 5656 5653 5651 5649 5648 5646 5644 5643 5642 5642 5641 5641
5748 5747 5745 5743 5740 5738 5735 5733 5730 5727 5724 5720 5717 5713 5710 5706 5702 5699 5695 5691 5687 5684 5680 5676 5673 5670 5666 5663 5660 5658 5655 5653 5651 5649 5647 5645 5643 5642 5640 5639 5638 5637 5636
5747 5745 5743 5741 5739 5737 5734 5731 5728 5725 5722 5719 5715 5712 5708 5705 5701 5697 5693 5689 5685 5682 5678 5674 5671 5667 5664 5661 5658 5655 5653 5651 5649 5646 5644 5642 5640 5639 5637 5635 5634 5632 5631
5745 5744 5742 5740 5738 5736 5733 5730 5727 5724 5721 5717 5714 5710 5707 5703 5700 5696 5692 5687 5683 5679 5676 5672 5669 5665 5662 5659 5656 5653 5651 5648 5646 5644 5642 5639 5637 5636 5634 5632 5630 5628 5627
5744 5742 5741 5739 5737 5735 5732 5729 5726 5723 5719 5716 5713 5709 5705 5702 5698 5694 5690 5686 5682 5678 5674 5670 5667 5663 5660 5656 5654 5651 5648 5646 5643 5640 5638 5636 5634 5632 5630 5628 5626 5624 5622
5743 5741 5740 5738 5736 5734 5731 5728 5725 5722 5718 5715 5711 5707 5704 5700 5696 5692 5688 5684 5680 5676 5672 5668 5665 5661 5658 5654 5651 5648 5645 5642 5640 5637 5635 5632 5630 5628 5626 5624 5621 5619 5617
5742 5741 5739 5737 5735 5733 5730 5727 5724 5721 5717 5713 5709 5705 5702 5698 5694 5690 5686 5682 5678 5673 5669 5666 5662 5658 5655 5651 5648 5645 5642 5638 5636 5633 5631 5628 5625 5623 5621 5619 5616 5614 5612
5742 5740 5738 5736 5734 5732 5729 5726 5722 5719 5716 5712 5708 5704 5700 5696 5692 5688 5684 5680 5675 5671 5667 5663 5659 5655 5651 5648 5644 5641 5638 5635 5632 5629 5626 5623 5620 5618 5615 5613 5611 5609 5606
5741 5739 5737 5735 5733 5730 5727 5724 5721 5718 5714 5710 5706 5702 5698 5694 5690 5686 5681 5677 5673 5668 5664 5659 5655 5651 5647 5644 5640 5637 5633 5630 5627 5624 5621 5618 5615 5612 5610 5607 5605 5602 5600
5739 5738 5735 5733 5731 5729 5726 5723 5719 5716 5712 5708 5704 5700 5696 5691 5687 5683 5678 5674 5669 5665 5660 5655 5651 5647 5643 5639 5635 5632 5628 5625 5622 5618 5615 5612 5609 5606 5604 5601 5599 5596 5593
5738 5736 5734 5732 5729 5726 5724 5721 5717 5713 5709 5705 5701 5697 5693 5688 5684 5680 5675 5671 5665 5660 5655 5651 5647 5642 5638 5634 5630 5626 5623 5619 5616 5613 5609 5606 5603 5600 5597 5595 5592 5589 5587
5736 5734 5732 5730 5727 5725 5721 5718 5714 5710 5707 5703 5699 5694 5690 5685 5681 5676 5672 5667 5662 5656 5651 5646 5642 5637 5632 5628 5624 5620 5616 5613 5609 5606 5602 5599 5596 5593 5591 5588 5585 5582 5579
5734 5732 5730 5728 5725 5722 5719 5716 5712 5708 5704 5700 5696 5691 5687 5682 5678 5673 5668 5663 5657 5652 5647 5641 5636 5632 5627 5623 5618 5614 5610 5606 5602 5599 5595 5592 5589 5586 5583 5580 5577 5575 5572
5732 5730 5728 5726 5723 5720 5716 5713 5709 5705 5701 5697 5693 5688 5684 5679 5674 5669 5664 5659 5653 5647 5642 5636 5631 5626 5621 5617 5612 5608 5603 5599 5595 5592 5588 5585 5582 5579 5576 5573 5570 5567 5564
5730 5728 5726 5723 5720 5717 5714 5710 5706 5702 5698 5694 5690 5685 5680 5675 5670 5665 5660 5654 5648 5642 5637 5631 5626 5621 5616 5611 5606 5601 5597 5593 5588 5585 5581 5578 5574 5571 5568 5565 5562 5559 5556
5728 5726 5723 5721 5718 5715 5711 5707 5704 5699 5695 5691 5686 5682 5677 5672 5666 5661 5655 5649 5644 5638 5632 5627 5621 5615 5610 5605 5600 5595 5591 5586 5582 5578 5574 5570 5567 5563 5560 5557 5554 5551 5548